[[{"header":{"parameterUnit":"m.s-1","parameterCategory":1,"la1":30.2991,"la2":30.254,"lo1":-89.0895,"lo2":-89.0444,"dy":0.0017,"dx":0.0017,"nx":28,"ny":28,"refTime":"2024-03-15T21:00:00:Z","depth":0,"parameterNumber":2,"parameterNumberName":"U-component_of_WINDS"},"data":[0,0,0,0,0,0,0,0,0,0,0,0,0,0,0,0,0,0,0,0,0,0,0,0,0,0,0,0,0,0,0,0,0,0,0,0,0,0,0,0,0,0,0,0,0,0,0,0,0,0,0,0,0,0,0,0,0,0,-0.4311,-0.431,0,-0.4271,-0.4271,-0.427,-0.4219,-0.4219,-0.4218,-0.4217,-0.4175,-0.4175,-0.4174,0,0,0,0,0,0,0,0,0,0,0,0,0,-0.4343,-0.4343,-0.4311,-0.431,-0.431,-0.4271,-0.427,-0.427,-0.422,-0.4219,-0.4218,-0.4217,-0.4175,-0.4175,-0.4174,0,0,0,0,0,0,0,0,0,0,0,0,0,-0.4319,-0.4343,-0.4311,-0.428,-0.4277,-0.4271,-0.427,-0.427,-0.422,-0.4219,-0.4217,-0.4216,-0.4175,-0.4175,-0.4174,-0.4195,0,0,-0.4173,-0.4172,0,0,0,0,0,0,0,0,-0.432,-0.4318,-0.4285,-0.4282,-0.4279,-0.4249,-0.4266,-0.4245,-0.422,-0.4241,-0.4217,-0.4216,-0.4201,-0.4198,-0.4193,-0.4193,-0.4192,-0.4173,-0.4172,-0.4172,-0.4172,0,0,0,0,0,0,0,-0.4322,-0.4319,-0.4295,-0.4285,-0.4281,-0.4268,-0.4263,-0.4262,-0.4228,-0.4239,-0.4236,-0.4232,-0.4199,-0.4194,-0.4192,-0.4191,-0.4173,-0.4172,-0.4172,-0.4172,-0.4208,-0.421,0,0,0,0,0,0,-0.4328,-0.4321,-0.4296,-0.4294,-0.4297,-0.4269,-0.4263,-0.426,-0.4228,-0.4222,-0.4233,-0.423,-0.4195,-0.4192,-0.419,-0.4214,-0.4172,-0.4172,-0.4171,-0.4207,-0.4209,-0.421,0,0,0,0,0,0,-0.4329,-0.4327,-0.4298,-0.4306,-0.4302,-0.4269,-0.4266,-0.426,-0.4255,-0.4223,-0.4217,-0.4234,-0.4194,-0.4191,-0.4195,-0.4212,-0.4171,-0.4171,-0.4206,-0.4208,-0.4209,-0.4261,0,0,0,0,0,0,-0.433,-0.4327,-0.4335,-0.4307,-0.4301,-0.4304,-0.4267,-0.426,-0.4254,-0.4249,-0.4223,-0.4217,-0.4193,-0.4196,-0.4194,-0.421,-0.417,-0.4204,-0.4206,-0.4209,-0.4258,-0.4265,-0.4271,0,0,0,0,0,-0.4332,-0.435,-0.4336,-0.4333,-0.431,-0.4305,-0.4301,-0.4274,-0.4255,-0.4263,-0.4243,-0.4218,-0.421,-0.4197,-0.4195,-0.4211,-0.4203,-0.4206,-0.4209,-0.4255,-0.4263,-0.427,0,0,0,0,0,0,-0.438,-0.4346,-0.4329,-0.4339,-0.4325,-0.4296,-0.4305,-0.4283,-0.4274,-0.427,-0.4235,-0.423,-0.4238,-0.4224,-0.421,-0.423,-0.4203,-0.4205,-0.4239,-0.4246,-0.4253,-0.4256,-0.417,0,0,0,0,0,-0.4393,-0.4391,-0.4361,-0.4373,-0.4367,-0.4337,-0.4334,-0.4314,-0.4297,-0.4291,-0.4271,-0.4257,-0.4251,-0.4248,-0.4241,-0.4256,-0.425,-0.4265,-0.4272,-0.4277,-0.428,-0.4289,-0.4296,-0.422,-0.422,-0.422,0,0,-0.4417,-0.4398,-0.4399,-0.4382,-0.4369,-0.4368,-0.4332,-0.4333,-0.4332,-0.4291,-0.4294,-0.4279,-0.4261,-0.4271,-0.4274,-0.426,-0.43,-0.4281,-0.4285,-0.4285,-0.4292,-0.43,-0.4306,-0.4222,-0.4221,-0.4221,0,0,-0.4462,-0.4447,-0.4456,-0.4444,-0.4425,-0.4405,-0.4408,-0.4382,-0.4371,-0.4373,-0.4343,-0.4342,-0.4332,-0.4321,-0.4314,-0.4356,-0.4333,-0.4355,-0.4388,-0.4397,-0.4403,-0.4408,-0.4424,-0.443,-0.4357,-0.4358,-0.4358,0,-0.4495,-0.4493,-0.4463,-0.4466,-0.446,-0.4424,-0.4433,-0.4423,-0.4402,-0.4399,-0.4383,-0.4372,-0.4356,-0.4364,-0.4375,-0.437,-0.4372,-0.4358,-0.4404,-0.4409,-0.4413,-0.4429,-0.4435,-0.436,-0.436,-0.436,-0.4359,0,-0.4535,-0.4535,-0.4544,-0.4526,-0.4521,-0.4527,-0.4499,-0.4497,-0.4478,-0.446,-0.4464,-0.4445,-0.4434,-0.4434,-0.4415,-0.444,-0.4432,-0.441,-0.4382,-0.4424,-0.4438,-0.4443,-0.4364,-0.4363,-0.4363,-0.4362,0,0,-0.461,-0.4576,-0.458,-0.4572,-0.4549,-0.4548,-0.4553,-0.4543,-0.4543,-0.453,-0.4534,-0.4528,-0.4508,-0.4501,-0.448,-0.4487,-0.4524,-0.4465,-0.4464,-0.4478,-0.4552,-0.4569,-0.4576,-0.4508,-0.4509,-0.451,-0.4554,0,-0.4651,-0.4658,-0.4632,-0.4645,-0.4645,-0.4611,-0.4615,-0.4602,-0.4586,-0.4583,-0.4565,-0.4562,-0.4536,-0.4531,-0.4537,-0.4518,-0.4539,-0.4515,-0.4512,-0.4513,-0.4519,-0.4583,-0.4601,-0.4643,-0.4559,-0.456,-0.456,0,-0.47,-0.4691,-0.4705,-0.4683,-0.4682,-0.4686,-0.4676,-0.4673,-0.4658,-0.4645,-0.4638,-0.4614,-0.4618,-0.4591,-0.4596,-0.458,-0.4578,-0.4569,-0.457,-0.4569,-0.454,-0.4585,-0.4655,-0.4662,-0.4568,-0.4568,-0.4567,0,-0.4755,-0.4746,-0.4754,-0.4748,-0.4721,-0.4725,-0.4715,-0.4698,-0.4694,-0.4685,-0.4682,-0.4673,-0.4669,-0.4663,-0.4638,-0.462,-0.4647,-0.4617,-0.4637,-0.4638,-0.4645,-0.4645,-0.4717,-0.4642,-0.4642,-0.4642,-0.4641,0,-0.4804,-0.4815,-0.4778,-0.4783,-0.4794,-0.4764,-0.4775,-0.4761,-0.4747,-0.4748,-0.4718,-0.472,-0.4686,-0.4685,-0.4665,-0.4674,-0.4672,-0.4662,-0.4657,-0.4666,-0.4667,-0.4664,-0.4661,-0.4643,-0.4643,-0.4642,-0.4642,0,-0.4867,-0.4843,-0.4849,-0.4824,-0.4818,-0.4827,-0.4806,-0.481,-0.4792,-0.4795,-0.4794,-0.4766,-0.4763,-0.4737,-0.4728,-0.4715,-0.4732,-0.472,-0.4737,-0.4734,-0.4756,-0.4755,-0.483,-0.4839,-0.4757,-0.4758,-0.4758,0,-0.4901,-0.4908,-0.4884,-0.4884,-0.4875,-0.4873,-0.487,-0.4841,-0.4838,-0.4822,-0.4828,-0.4823,-0.4817,-0.4815,-0.4794,-0.4787,-0.4776,-0.4803,-0.4775,-0.4784,-0.4778,-0.4779,-0.478,-0.4809,-0.481,-0.4811,-0.4812,0,-0.4964,-0.4952,-0.4948,-0.4941,-0.4937,-0.493,-0.492,-0.4921,-0.489,-0.4888,-0.4886,-0.4881,-0.4873,-0.4869,-0.4859,-0.4848,-0.4825,-0.4821,-0.4825,-0.4834,-0.4845,-0.4841,-0.4755,-0.4819,-0.4818,-0.4818,-0.4817,-0.4817,-0.5014,-0.502,-0.5004,-0.5001,-0.4991,-0.4984,-0.4986,-0.497,-0.4967,-0.4958,-0.4941,-0.4941,-0.4927,-0.4911,-0.4902,-0.4902,-0.4889,-0.4895,-0.4897,-0.4899,-0.4904,-0.4844,-0.49,-0.49,-0.49,-0.4899,-0.4899,0,-0.5077,-0.5066,-0.5063,-0.5052,-0.505,-0.5028,-0.5017,-0.5017,-0.5018,-0.5006,-0.5002,-0.4999,-0.4995,-0.4975,-0.4968,-0.4973,-0.4962,-0.4972,-0.4972,-0.497,-0.4916,-0.4913,-0.4981,-0.4981,-0.4981,-0.4981,-0.4981,-0.4981,-0.511,-0.5119,-0.5105,-0.5109,-0.5097,-0.5097,-0.5093,-0.5086,-0.5077,-0.5076,-0.5073,-0.5059,-0.5044,-0.5037,-0.5033,-0.5027,-0.5027,-0.5041,-0.5032,-0.4982,-0.4974,-0.4966,-0.4964,-0.5041,-0.5041,-0.5086,-0.5086,-0.5087]},{"header":{"parameterUnit":"m.s-1","parameterCategory":1,"la1":30.2991,"la2":30.254,"lo1":-89.0895,"lo2":-89.0444,"dy":0.0017,"dx":0.0017,"nx":28,"ny":28,"refTime":"2024-03-15T21:00:00:Z","depth":0,"parameterNumber":3,"parameterNumberName":"V-component_of_WINDS"},"data":[0,0,0,0,0,0,0,0,0,0,0,0,0,0,0,0,0,0,0,0,0,0,0,0,0,0,0,0,0,0,0,0,0,0,0,0,0,0,0,0,0,0,0,0,0,0,0,0,0,0,0,0,0,0,0,0,0,0,1.862,1.862,0,1.8632,1.8632,1.8633,1.8654,1.8654,1.8654,1.8655,1.8666,1.8666,1.8666,0,0,0,0,0,0,0,0,0,0,0,0,0,1.8612,1.8612,1.8619,1.862,1.862,1.8632,1.8632,1.8633,1.8654,1.8654,1.8654,1.8655,1.8666,1.8666,1.8666,0,0,0,0,0,0,0,0,0,0,0,0,0,1.8619,1.8612,1.8619,1.8632,1.8633,1.8632,1.8632,1.8633,1.8653,1.8654,1.8655,1.8655,1.8666,1.8666,1.8666,1.8654,0,0,1.8666,1.8666,0,0,0,0,0,0,0,0,1.8619,1.8619,1.863,1.8631,1.8632,1.8642,1.8634,1.864,1.8653,1.8646,1.8655,1.8655,1.8658,1.8658,1.8659,1.8655,1.8655,1.8666,1.8666,1.8666,1.8666,0,0,0,0,0,0,0,1.8618,1.8619,1.8625,1.863,1.8631,1.8636,1.8638,1.8635,1.8648,1.8646,1.8648,1.8649,1.8659,1.8659,1.866,1.8655,1.8666,1.8666,1.8666,1.8666,1.8641,1.864,0,0,0,0,0,0,1.8616,1.8618,1.8624,1.8625,1.8627,1.8636,1.8638,1.8638,1.8648,1.865,1.8649,1.865,1.8659,1.866,1.866,1.8647,1.8666,1.8666,1.8666,1.8641,1.8641,1.864,0,0,0,0,0,0,1.8616,1.8616,1.8624,1.8622,1.8623,1.8635,1.8636,1.8638,1.8639,1.865,1.8652,1.8647,1.866,1.866,1.8656,1.8647,1.8666,1.8666,1.8642,1.8641,1.864,1.8619,0,0,0,0,0,0,1.8615,1.8616,1.8612,1.8622,1.8623,1.8619,1.8635,1.8638,1.8639,1.8641,1.8649,1.8651,1.866,1.8656,1.8655,1.8647,1.8666,1.8643,1.8642,1.8641,1.862,1.8617,1.8615,0,0,0,0,0,1.8615,1.8605,1.8611,1.8612,1.8618,1.8618,1.8619,1.863,1.8638,1.8634,1.8641,1.8651,1.8648,1.8655,1.8655,1.8647,1.8644,1.8642,1.8641,1.8622,1.8618,1.8615,0,0,0,0,0,0,1.8593,1.8606,1.8614,1.8607,1.8611,1.8622,1.8617,1.8626,1.8628,1.8629,1.8643,1.8644,1.8637,1.8642,1.8649,1.8635,1.8647,1.8646,1.8633,1.8629,1.8627,1.8626,1.8666,0,0,0,0,0,1.8587,1.8587,1.8598,1.8591,1.8593,1.8604,1.8605,1.8613,1.8618,1.862,1.8626,1.8631,1.8631,1.863,1.8631,1.8621,1.8623,1.8616,1.8613,1.861,1.8609,1.8604,1.8601,1.8635,1.8635,1.8636,0,0,1.8576,1.8583,1.8582,1.8587,1.8591,1.859,1.8606,1.8604,1.8603,1.8619,1.8615,1.862,1.8626,1.8618,1.8615,1.8621,1.86,1.8609,1.8607,1.8606,1.8602,1.8599,1.8596,1.8635,1.8635,1.8635,0,0,1.8554,1.8559,1.8554,1.8558,1.8565,1.8572,1.8571,1.858,1.8584,1.8581,1.8593,1.8592,1.8592,1.8595,1.8597,1.8576,1.8585,1.8576,1.8561,1.8556,1.8553,1.8551,1.8543,1.854,1.8574,1.8574,1.8574,0,1.8538,1.8537,1.8549,1.8547,1.8548,1.8564,1.8558,1.8562,1.8568,1.8569,1.8576,1.8576,1.8581,1.8574,1.8569,1.857,1.8569,1.8575,1.8553,1.855,1.8548,1.8541,1.8538,1.8573,1.8573,1.8573,1.8574,0,1.8517,1.8516,1.8511,1.8517,1.8518,1.8514,1.8526,1.8525,1.8533,1.854,1.8536,1.8542,1.8544,1.8543,1.8551,1.8538,1.8541,1.855,1.8563,1.8544,1.8537,1.8534,1.8571,1.8572,1.8572,1.8573,0,0,1.8481,1.8495,1.8493,1.8496,1.8505,1.8504,1.85,1.8503,1.8502,1.8506,1.8503,1.8502,1.8511,1.8513,1.8521,1.8516,1.8499,1.8526,1.8526,1.852,1.8485,1.8478,1.8474,1.8505,1.8505,1.8505,1.8484,0,1.8461,1.8456,1.8467,1.8459,1.8458,1.8473,1.8469,1.8474,1.848,1.848,1.8487,1.8486,1.8498,1.8499,1.8495,1.8502,1.8492,1.8504,1.8502,1.8502,1.85,1.8471,1.8464,1.8444,1.8482,1.8481,1.8481,0,1.8436,1.8439,1.8431,1.844,1.844,1.8437,1.8441,1.844,1.8446,1.8451,1.8453,1.8463,1.8459,1.8471,1.8466,1.8474,1.8474,1.8477,1.8477,1.8477,1.849,1.847,1.8438,1.8435,1.8477,1.8477,1.8478,0,1.841,1.8412,1.8408,1.841,1.8421,1.8418,1.8423,1.8429,1.843,1.8432,1.8433,1.8435,1.8436,1.8437,1.8447,1.8455,1.8441,1.8454,1.8445,1.8444,1.8441,1.8441,1.8408,1.8441,1.8441,1.8441,1.8441,0,1.8386,1.838,1.8396,1.8394,1.8388,1.8401,1.8394,1.84,1.8405,1.8404,1.8416,1.8414,1.8428,1.8427,1.8435,1.8429,1.843,1.8433,1.8435,1.8432,1.8431,1.8432,1.8433,1.844,1.8441,1.8441,1.8441,0,1.8356,1.8367,1.8363,1.8373,1.8376,1.8371,1.838,1.8378,1.8385,1.8382,1.8383,1.8394,1.8394,1.8404,1.8405,1.841,1.8402,1.8406,1.84,1.8401,1.8391,1.8392,1.8357,1.8353,1.8389,1.8389,1.8388,0,1.8339,1.8335,1.8346,1.8346,1.835,1.835,1.8351,1.8363,1.8364,1.837,1.8367,1.8368,1.8369,1.8368,1.8376,1.8377,1.8382,1.8369,1.8382,1.8379,1.8381,1.8381,1.8381,1.8367,1.8366,1.8366,1.8366,0,1.8309,1.8315,1.8316,1.8319,1.832,1.8323,1.8327,1.8326,1.834,1.834,1.834,1.8341,1.8343,1.8344,1.8347,1.835,1.836,1.8362,1.836,1.8356,1.8352,1.8354,1.8392,1.8362,1.8363,1.8363,1.8363,1.8363,1.8285,1.8282,1.8289,1.8291,1.8295,1.8298,1.8296,1.8304,1.8304,1.8307,1.8315,1.8313,1.8319,1.8324,1.8327,1.8326,1.8332,1.8329,1.8328,1.8327,1.8325,1.8353,1.8327,1.8327,1.8327,1.8327,1.8327,0,1.8255,1.8261,1.8262,1.8267,1.8267,1.8277,1.8282,1.8282,1.8281,1.8286,1.8287,1.8287,1.8288,1.8296,1.8297,1.8295,1.8299,1.8295,1.8295,1.8296,1.832,1.8321,1.8291,1.8291,1.8291,1.8291,1.8291,1.8291,1.824,1.8236,1.8242,1.824,1.8245,1.8245,1.8247,1.825,1.8254,1.8253,1.8254,1.826,1.8266,1.8268,1.8269,1.8271,1.8271,1.8265,1.8268,1.8291,1.8294,1.8297,1.8299,1.8265,1.8265,1.8245,1.8244,1.8244]}]]